Weather History for KASD - December, 2013

Change the Weather History Date:

Thursday, December 19, 2013

  Actual Average (KNEW) Record (KNEW)
Temperature  
Mean Temperature 55 °F 55 °F  
Max Temperature 73 °F 64 °F 82 °F (1967)
Min Temperature 37 °F 46 °F 26 °F (1996)
Degree Days  
Heating Degree Days 10 11  
Month to date heating degree days 179  
Since 1 July heating degree days 343  
Cooling Degree Days 0 1  
Month to date cooling degree days 19  
Year to date cooling degree days 2997  
Growing Degree Days 5 (Base 50)    
Moisture  
Dew Point 50 °F    
Average Humidity 77    
Maximum Humidity 93    
Minimum Humidity 55    
Precipitation  
Precipitation 0.00 in 0.16 in 2.20 in (1973)
Month to date precipitation 3.15  
Year to date precipitation 60.36  
Snow  
Snow 0.00 in - - ()
Month to date snowfall  
Since 1 July snowfall  
Snow Depth -    
Sea Level Pressure  
Sea Level Pressure 30.14 in    
Wind  
Wind Speed 4 mph (SE)    
Max Wind Speed 15 mph    
Max Gust Speed 22 mph    
Visibility 10 miles    
Events      
T = Trace of Precipitation, MM = Missing Value Source: NWS Daily Summary

Daily Weather History Graph

Daily Weather History Graph

Search for Another Location

Airport or City:

Trip Planner

Search our weather history database for the weather conditions in past years. The results will help you decide how hot, cold, wet, or windy it might be!

Date:

Astronomy

Dec. 19, 2013 Rise Set
Actual Time 6:50 AM CST 5:02 PM CST
Civil Twilight 6:24 AM CST 5:28 PM CST
Nautical Twilight 5:54 AM CST 5:58 PM CST
Astronomical Twilight 5:25 AM CST 6:28 PM CST
Moon 7:19 PM CST (12/19) 8:17 AM CST (12/19)
Length of Visible Light 11h 04m
Length of Day
10h 11m
Waning Gibbous, 95% of the Moon is Illuminated
Dec 19
Waning Gibbous
Dec 25
Last Quarter
Jan 1
New
Jan 7
First Quarter
Jan 15
Full

Hourly Weather History & Observations

Time (CST) Temp. Windchill Dew Point Humidity Pressure Visibility Wind Dir Wind Speed Gust Speed Precip Events Conditions
12:53 AM 37.9 °F 35.5 °F 34.0 °F 86% 30.21 in 10.0 mi North 3.5 mph - N/A   Clear
1:53 AM 37.9 °F - 35.1 °F 89% 30.20 in 10.0 mi Calm Calm - N/A   Clear
2:53 AM 37.9 °F - 35.1 °F 89% 30.20 in 10.0 mi Calm Calm - N/A   Partly Cloudy
3:53 AM 39.9 °F - 37.0 °F 89% 30.20 in 10.0 mi Calm Calm - N/A   Mostly Cloudy
4:53 AM 45.0 °F - 43.0 °F 93% 30.19 in 9.0 mi Calm Calm - N/A   Scattered Clouds
5:53 AM 48.9 °F - 46.0 °F 90% 30.19 in 9.0 mi ENE 3.5 mph - N/A   Mostly Cloudy
6:53 AM 48.9 °F - 46.9 °F 93% 30.19 in 9.0 mi Calm Calm - N/A   Scattered Clouds
7:53 AM 50.0 °F - 46.9 °F 89% 30.20 in 8.0 mi Variable 3.5 mph - N/A   Clear
8:53 AM 57.9 °F - 52.0 °F 81% 30.21 in 10.0 mi East 5.8 mph - N/A   Scattered Clouds
9:53 AM 63.0 °F - 53.1 °F 70% 30.21 in 10.0 mi SE 5.8 mph - N/A   Clear
10:53 AM 68.0 °F - 55.0 °F 63% 30.19 in 10.0 mi SSE 8.1 mph - N/A   Mostly Cloudy
12:53 PM 73.0 °F - 55.9 °F 55% 30.12 in - South 13.8 mph - N/A   Unknown
1:53 PM 72.0 °F - 55.9 °F 57% 30.10 in 10.0 mi SSE 15.0 mph 21.9 mph N/A   Clear
2:53 PM 71.1 °F - 55.9 °F 59% 30.09 in 10.0 mi SSE 11.5 mph - N/A   Mostly Cloudy
3:53 PM 70.0 °F - 57.0 °F 63% 30.10 in 10.0 mi SE 6.9 mph - N/A   Mostly Cloudy
4:53 PM 66.9 °F - 55.9 °F 68% 30.09 in 10.0 mi SE 6.9 mph - N/A   Overcast
5:53 PM 64.0 °F - 55.9 °F 75% 30.08 in 10.0 mi ESE 5.8 mph - N/A   Partly Cloudy
6:53 PM 62.1 °F - 55.0 °F 78% 30.09 in 10.0 mi SE 5.8 mph - N/A   Partly Cloudy
7:53 PM 63.0 °F - 55.9 °F 78% 30.09 in 10.0 mi ESE 4.6 mph - N/A   Overcast
8:53 PM 63.0 °F - 55.9 °F 78% 30.08 in 10.0 mi SE 4.6 mph - N/A   Overcast
9:53 PM 64.0 °F - 57.0 °F 78% 30.07 in 10.0 mi ESE 4.6 mph - N/A   Overcast
10:53 PM 64.9 °F - 57.0 °F 75% 30.07 in 10.0 mi SSE 12.7 mph - N/A   Overcast
11:53 PM 64.9 °F - 57.0 °F 75% 30.05 in 10.0 mi SSE 8.1 mph - N/A   Overcast